Location: Newark
(25.4800°N, 85.7200°E)
Time: 23:20:12
(UTC+00:00)

Explorer 11/Cluster Stage 4 - Pass Details

Date: 20 August 2019
Orbit: 467 x 1260 km, 28.8° (Epoch: 21 September)

Event Time Altitude Azimuth Distance (km) Brightness Sun altitude
Rises 08:37:13 0° 278° (W) 4,113 10.7 55.3°
Reaches altitude 10° 08:40:18 10° 281° (W) 3,077 10.3 54.7°
Maximum altitude 08:47:55 68° 3° (N) 1,097 8.1 53.0°
Drops below altitude 10° 08:54:09 10° 87° (E) 2,538 8.9 51.6°
Sets 08:56:29 0° 90° (E) 3,357 9.4 51.1°
